Regional Weather Roundup
Issued by NWS

Home | Current Version | Previous Version | Text Only | Print | Product List | Glossary On
Versions: 1 2 3 4 5 6 7 8 9 10 11 12 13 14 15 16 17 18 19 20 21 22 23 24 25 26 27 28 29 30 31 32 33 34 35 36 37 38 39 40 41 42 43 44 45 46 47 48 49 50
000
ASUS45 KSLC 070810
RWRUT

UTAH REGIONAL WEATHER ROUNDUP
NATIONAL WEATHER SERVICE SALT LAKE CITY UT
200 AM MDT THU MAY 07 2015

UTZ001>011-023>025-070900-

NORTHERN UTAH

CITY           SKY/WX    TMP DP  RH WIND       PRES   REMARKS
HILL AFB       CLOUDY    46  46 100 VRB2      29.80F
LOGAN          RAIN      47  45  93 NW7       29.80S FOG
OGDEN          CLOUDY    47  46  97 NW3       29.80S
PROVO AIRPORT  CLOUDY    48  45  87 E5        29.81F
SALT LAKE CITY CLOUDY    49  46  90 SE9       29.80F
VERNAL         PTCLDY    44  32  62 N5        29.83F
WENDOVER       CLOUDY    48  45  87 N3        29.80F
HEBER CITY     CLOUDY    45  41  87 N3        29.82S
WEST JORDAN    CLOUDY    46  46 100 CALM      29.81F

$$

UTZ012>022-026-027-070900-

SOUTHERN/CENTRAL UTAH

CITY           SKY/WX    TMP DP  RH WIND       PRES   REMARKS
BLANDING       CLOUDY    51  36  55 E6        29.94R
BRYCE CANYON   MOCLDY    43  31  62 SW3       29.89F
CEDAR CITY     PTCLDY    51  33  50 S10       29.79S
DELTA          CLOUDY    46  44  93 NE7       29.79F
HANKSVILLE     PTCLDY    52  45  76 CALM      29.81F
MILFORD        CLOUDY    46  42  86 N12       29.79S
MOAB/CYNLANDS  PTCLDY    52  45  77 E9G18     29.79R
PRICE          MOCLDY    43  37  79 N9        29.83S
ST GEORGE      CLOUDY    66  34  30 E5        29.72S
KANAB          PTCLDY    46  36  66 CALM      29.85R

$$

REGIONAL REPORTS     COLORADO/ARIZONA

CITY           SKY/WX    TMP DP  RH WIND       PRES   REMARKS
CRAIG, CO      MOCLDY    39  36  89 E3        29.88S
GRAND JUNCTION MOCLDY    46  46 100 NW6       29.85R
RIFLE          PTCLDY    42  39  89 S3        29.89S
MONTROSE       MOCLDY    48  43  82 SE8       29.91R
CORTEZ         CLEAR     47  39  74 CALM      29.90R
PAGE, AZ       PTCLDY    60  32  34 S7        29.79S
GRAND CANYON   PTCLDY    30  24  78 NE3       29.91F
KINGMAN        CLEAR     54  36  50 S9        29.76F
FLAGSTAFF      PTCLDY    37  30  75 CALM      29.93F

$$

REGIONAL REPORTS    NEVADA/IDAHO/WYOMING

CITY           SKY/WX    TMP DP  RH WIND       PRES   REMARKS
LAS VEGAS, NV  CLEAR     68  29  23 S12       29.62S
ELY            CLOUDY    39  38  96 S7        29.79F WCI  34
ELKO           CLOUDY    48  26  42 NE21G30   29.77S
POCATELLO, ID  CLOUDY    48  46  93 S5        29.80S
BURLEY         CLOUDY    47  24  40 SW8       29.79R
EVANSTON, WY   CLOUDY    40  39  97 SW7       29.83S
ROCK SPRINGS   CLOUDY    40  38  93 E15       29.84F WCI  32
KEMMERER       DRIZZLE   39  37  93 E7        29.84S WCI  34

$$



USA.gov is the U.S. government's official web portal to all federal, state and local government web resources and services.